Deering, AK

4:01 PM AKST on February 10, 2016 (GMT -0900)
Deering (New)

Weather History for PADE - February, 2012

Change the Weather History Date:

Saturday, February 4, 2012

  Actual Average (PAOT) Record (PAOT)
Temperature  
Mean Temperature -2 °F -2 °F  
Max Temperature 24 °F - 35 °F (1982)
Min Temperature -26 °F -9 °F -49 °F (1968)
Degree Days  
Heating Degree Days 68 67  
Month to date heating degree days 269  
Since 1 July heating degree days 8668  
Cooling Degree Days 0    
Month to date cooling degree days  
Year to date cooling degree days  
Moisture  
Dew Point -9 °F    
Average Humidity 80    
Maximum Humidity 93    
Minimum Humidity 69    
Precipitation  
Precipitation 0.03 in 0.03 in 0.41 in (2012)
Month to date precipitation 0.09  
Year to date precipitation 0.71  
Snow  
Snow 0.00 in 0.30 in 6.00 in (2003)
Month to date snowfall 1.3  
Since 1 July snowfall 39.3  
Snow Depth -    
Sea Level Pressure  
Sea Level Pressure 29.55 in    
Wind  
Wind Speed 19 mph (East)    
Max Wind Speed 39 mph    
Max Gust Speed 43 mph    
Visibility 3 miles    
Events Fog , Snow    
T = Trace of Precipitation, MM = Missing Value Source: NWS Daily Summary

Daily Weather History Graph

Daily Weather History Graph

Search for Another Location

Airport or City:

Trip Planner

Search our weather history database for the weather conditions in past years. The results will help you decide how hot, cold, wet, or windy it might be!

Date:

Astronomy

Feb. 04, 2012 Rise Set
Actual Time 10:37 AM AKST 5:33 PM AKST
Civil Twilight 9:36 AM AKST 6:34 PM AKST
Nautical Twilight 8:33 AM AKST 7:38 PM AKST
Astronomical Twilight 7:33 AM AKST 8:37 PM AKST
Moon 1:34 PM AKST (2/4) 9:24 AM AKST (2/4)
Length of Visible Light 8h 58m
Length of Day
6h 55m
Waxing Gibbous, 90% of the Moon is Illuminated
Feb 4
Waxing Gibbous
Feb 7
Full
Feb 14
Last Quarter
Feb 21
New
Feb 29
First Quarter

Hourly Weather History & Observations

Time (AKST) Temp. Windchill Dew Point Humidity Pressure Visibility Wind Dir Wind Speed Gust Speed Precip Events Conditions
12:53 AM -26.0 °F -47.2 °F -33.0 °F 69% 29.78 in 8.0 mi ENE 9.2 mph - 0.00 in Snow Light Snow
1:53 AM -26.0 °F -45.8 °F -32.1 °F 73% 29.78 in 7.0 mi ENE 8.1 mph - N/A   Overcast
2:53 AM -24.0 °F -37.9 °F -31.0 °F 70% 29.79 in 10.0 mi NNE 4.6 mph - N/A   Overcast
3:53 AM -25.1 °F -41.3 °F -31.0 °F 74% 29.80 in 10.0 mi ENE 5.8 mph - N/A   Mostly Cloudy
4:53 AM -26.0 °F -44.2 °F -32.1 °F 73% 29.80 in 10.0 mi NE 6.9 mph - N/A   Partly Cloudy
5:53 AM -25.1 °F - -32.1 °F 70% 29.80 in 10.0 mi Calm Calm - N/A   Clear
7:53 AM -24.0 °F -43.4 °F -31.0 °F 70% 29.78 in 10.0 mi ENE 8.1 mph - N/A   Clear
8:53 AM -23.1 °F -43.7 °F -29.0 °F 74% 29.73 in 10.0 mi NE 9.2 mph - N/A   Clear
9:53 AM -20.0 °F -46.6 °F -26.0 °F 74% 29.70 in 6.0 mi NE 17.3 mph - N/A   Haze
10:45 AM -11.2 °F -39.2 °F -18.4 °F 70% 29.64 in 2.0 mi East 25.3 mph - N/A   Haze
10:50 AM -11.2 °F -42.3 °F -18.4 °F 70% 29.61 in 0.8 mi ENE 33.4 mph 39.1 mph N/A   Haze
10:53 AM -11.0 °F -40.8 °F -18.0 °F 71% 29.62 in 0.5 mi ENE 29.9 mph 39.1 mph 0.00 in   Overcast
11:15 AM -9.4 °F -37.7 °F -16.6 °F 71% 29.59 in 1.0 mi East 27.6 mph - 0.00 in   Haze
11:42 AM -9.4 °F -38.6 °F -14.8 °F 77% 29.58 in 0.5 mi East 29.9 mph 35.7 mph 0.01 in   Haze
11:53 AM -9.0 °F -36.8 °F -15.0 °F 75% 29.58 in 0.5 mi ENE 26.5 mph 35.7 mph 0.01 in   Overcast
12:22 PM -7.6 °F -36.1 °F -13.0 °F 77% 29.54 in 0.2 mi East 29.9 mph 38.0 mph 0.00 in Snow Heavy Snow
12:53 PM -8.0 °F -37.4 °F -13.0 °F 79% 29.53 in 0.2 mi East 32.2 mph 38.0 mph 0.00 in Snow Heavy Snow
1:04 PM -7.6 °F -37.3 °F -13.0 °F 77% 29.52 in 0.2 mi East 33.4 mph 40.3 mph 0.00 in Snow Heavy Snow
1:14 PM -7.6 °F -37.3 °F -13.0 °F 77% 29.51 in 0.2 mi East 33.4 mph 41.4 mph 0.00 in Snow Heavy Snow
1:32 PM -7.6 °F -35.7 °F -11.2 °F 84% 29.49 in 0.2 mi East 28.8 mph 36.8 mph 0.00 in Snow Heavy Snow
1:46 PM -7.6 °F -39.1 °F -11.2 °F 84% 29.47 in 0.2 mi East 39.1 mph 42.6 mph 0.00 in Snow Heavy Snow
1:53 PM -7.1 °F -37.7 °F -11.0 °F 83% 29.47 in 0.2 mi East 36.8 mph - 0.00 in Fog , Snow Light Snow
2:53 PM -5.1 °F -31.9 °F -9.0 °F 83% 29.44 in 0.2 mi East 27.6 mph - 0.00 in Fog , Snow Light Snow
3:08 PM -4.0 °F -29.6 °F -7.6 °F 85% 29.44 in 0.2 mi ENE 25.3 mph - 0.00 in Fog , Snow Snow
3:53 PM -2.9 °F -29.4 °F -7.1 °F 82% 29.42 in 0.2 mi East 28.8 mph - 0.00 in Fog , Snow Light Snow
4:53 PM 1.9 °F -11.8 °F -2.0 °F 83% 29.42 in 0.5 mi East 8.1 mph - 0.02 in Fog , Snow Light Snow
5:01 PM 8.6 °F -8.9 °F 5.0 °F 85% 29.41 in 1.0 mi ESE 16.1 mph 23.0 mph 0.00 in Snow Light Snow
5:20 PM 12.2 °F -6.7 °F 8.6 °F 85% 29.39 in 0.5 mi ESE 21.9 mph - 0.00 in Fog , Snow Light Snow
5:32 PM 12.2 °F -7.9 °F 8.6 °F 85% 29.39 in 0.2 mi ESE 25.3 mph 31.1 mph 0.00 in Fog , Snow Light Snow
6:37 PM 12.2 °F -8.9 °F 10.4 °F 92% 29.41 in 0.5 mi East 28.8 mph 35.7 mph 0.01 in Fog , Snow Light Snow
8:20 PM 19.4 °F 0.2 °F 17.6 °F 93% 29.42 in 0.5 mi ESE 31.1 mph 40.3 mph 0.00 in Fog , Snow Light Snow
8:37 PM 21.2 °F 3.0 °F 17.6 °F 86% 29.42 in 0.8 mi SE 29.9 mph 39.1 mph 0.00 in Snow Light Snow
8:53 PM 21.0 °F 1.4 °F 19.0 °F 92% 29.42 in 0.5 mi SE 35.7 mph 41.4 mph 0.00 in Fog , Snow Light Snow
9:53 PM 21.9 °F 4.5 °F 19.0 °F 89% 29.47 in 0.8 mi ESE 27.6 mph 35.7 mph 0.00 in Snow Blowing Snow
10:02 PM 21.2 °F 3.3 °F 19.4 °F 93% 29.47 in 1.2 mi ESE 28.8 mph - N/A Snow Blowing Snow
11:53 PM 24.1 °F 7.4 °F 19.9 °F 84% 29.53 in 5.0 mi SE 27.6 mph 36.8 mph 0.00 in Snow Light Snow